This is the latest recevied weather packets stored in our database for station/object KD8OZS. If no packets are shown the sender has not sent any weather packets the latest 10 day(s).
| Time | Temp. | Humidity | Pressure | Rain* | Wind** | Luminosity | Snow |
|---|---|---|---|---|---|---|---|
| 1788137924 | 71° F | 95% | 759.6 mmHg | 0 in | - | 0 W/m² | - |
| 1788137619 | 71° F | 95% | 759.6 mmHg | 0 in | - | 0 W/m² | - |
| 1788137314 | 71° F | 95% | 759.7 mmHg | 0 in | - | 0 W/m² | - |
| 1788137010 | 71° F | 95% | 759.7 mmHg | 0 in | - | 0 W/m² | - |
| 1788136706 | 71° F | 95% | 759.4 mmHg | 0 in | - | 0 W/m² | - |
| 1788136402 | 71° F | 94% | 759.4 mmHg | 0 in | - | 0 W/m² | - |
| 1788136101 | 71° F | 94% | 759.4 mmHg | 0 in | - | 0 W/m² | - |
| 1788135800 | 71° F | 94% | 759.4 mmHg | 0 in | - | 0 W/m² | - |
| 1788135496 | 71° F | 94% | 759.5 mmHg | 0 in | - | 0 W/m² | - |
| 1788135191 | 71° F | 94% | 759.5 mmHg | 0 in | - | 0 W/m² | - |
| 1788134889 | 71° F | 93% | 759.4 mmHg | 0 in | - | 0 W/m² | - |
| 1788134588 | 71° F | 93% | 759.4 mmHg | 0 in | - | 0 W/m² | - |
| 1788134287 | 72° F | 93% | 759.4 mmHg | 0 in | - | 0 W/m² | - |
| 1788133982 | 71° F | 93% | 759.3 mmHg | 0 in | - | 0 W/m² | - |
| 1788133677 | 72° F | 93% | 759.1 mmHg | 0 in | - | 0 W/m² | - |
| 1788133373 | 72° F | 93% | 759 mmHg | 0 in | - | 0 W/m² | - |
| 1788133068 | 72° F | 93% | 759 mmHg | 0 in | - | 1 W/m² | - |
| 1788132764 | 72° F | 93% | 758.8 mmHg | 0 in | - | 2 W/m² | - |
| 1788132459 | 73° F | 92% | 758.6 mmHg | 0 in | - | 2 W/m² | - |
| 1788132155 | 73° F | 92% | 759 mmHg | 0 in | - | 5 W/m² | - |
| 1788131851 | 73° F | 92% | 758.8 mmHg | 0 in | - | 15 W/m² | - |
| 1788131551 | 73° F | 92% | 758.8 mmHg | 0 in | - | 24 W/m² | - |
| 1788131245 | 74° F | 91% | 758.8 mmHg | 0 in | - | 30 W/m² | - |
| 1788130941 | 73° F | 91% | 758.8 mmHg | 0 in | - | 32 W/m² | - |
| 1788130640 | 74° F | 91% | 758.9 mmHg | 0 in | - | 42 W/m² | - |
* Rain latest hour (hover to see other rain measurements)
** Current wind speed in m/s (hover to see current wind gust speed)